Cedar Rapids, IA

3:32 AM CST on November 23, 2017 (GMT -0600)
The Eastern Iowa Airport

Weather History for KCID - January, 2014

Change the Weather History Date:

Sunday, January 26, 2014

  Actual Average Record
Temperature  
Mean Temperature 18 °F 20 °F  
Max Temperature 36 °F 29 °F 63 °F (2002)
Min Temperature 0 °F 11 °F -18 °F (1936)
Degree Days  
Heating Degree Days 47 45  
Month to date heating degree days 1339 1187  
Since 1 July heating degree days 4257 3926  
Cooling Degree Days 0 0  
Month to date cooling degree days 0 0  
Year to date cooling degree days 0 0  
Moisture  
Dew Point 13 °F    
Average Humidity 75    
Maximum Humidity 88    
Minimum Humidity 62    
Precipitation  
Precipitation 0.06 in 0.03 in 0.96 in (1974)
Month to date precipitation 0.43 0.75  
Year to date precipitation 0.43 0.75  
Sea Level Pressure  
Sea Level Pressure 29.65 in    
Wind  
Wind Speed 23 mph (NW)    
Max Wind Speed 43 mph    
Max Gust Speed 54 mph    
Visibility 5 miles    
Events Snow    
T = Trace of Precipitation, MM = Missing Value Source: NWS Daily Summary

Daily Weather History Graph

Daily Weather History Graph

Search for Another Location

Airport or City:

Trip Planner

Search our weather history database for the weather conditions in past years. The results will help you decide how hot, cold, wet, or windy it might be!

Date:

Astronomy

Jan. 26, 2014 Rise Set
Actual Time 7:24 AM CST 5:14 PM CST
Civil Twilight 6:54 AM CST 5:44 PM CST
Nautical Twilight 6:21 AM CST 6:18 PM CST
Astronomical Twilight 5:48 AM CST 6:51 PM CST
Moon 3:02 AM CST (1/26) 1:03 PM CST (1/26)
Length of Visible Light 10h 49m
Length of Day
9h 49m
Waning Crescent, 23% of the Moon is Illuminated
Jan 26
Waning Crescent
Jan 30
New
Feb 6
First Quarter
Feb 14
Full
Feb 22
Last Quarter

Hourly Weather History & Observations

Time (CST) Temp. Windchill Dew Point Humidity Pressure Visibility Wind Dir Wind Speed Gust Speed Precip Events Conditions
12:11 AM 14.0 °F 0.5 °F 6.8 °F 73% 29.64 in 2.0 mi SE 11.5 mph - 0.01 in Snow Light Snow
12:23 AM 14.0 °F 1.2 °F 6.8 °F 73% 29.62 in 1.8 mi SE 10.4 mph - 0.01 in Snow Light Snow
12:52 AM 14.0 °F -0.2 °F 9.0 °F 80% 29.62 in 1.8 mi SSE 12.7 mph - 0.01 in Snow Light Snow
1:48 AM 15.8 °F 0.9 °F 10.4 °F 79% 29.50 in 2.5 mi SE 15.0 mph - 0.00 in Snow Light Snow
1:52 AM 15.1 °F -1.1 °F 10.9 °F 84% 29.53 in 4.0 mi SE 17.3 mph - 0.00 in Snow Light Snow
2:52 AM 17.1 °F 3.0 °F 8.1 °F 68% 29.49 in 10.0 mi South 13.8 mph - 0.01 in   Overcast
3:52 AM 18.0 °F 5.4 °F 8.1 °F 65% 29.44 in 10.0 mi SSE 11.5 mph - N/A   Overcast
4:52 AM 21.0 °F 10.6 °F 10.0 °F 63% 29.41 in 10.0 mi SSE 9.2 mph - N/A   Overcast
5:36 AM 30.2 °F 17.4 °F 21.2 °F 69% 29.38 in 10.0 mi West 20.7 mph - N/A   Overcast
5:41 AM 30.2 °F 17.8 °F 21.2 °F 69% 29.38 in 10.0 mi West 19.6 mph - N/A   Overcast
5:52 AM 33.1 °F 19.3 °F 27.0 °F 78% 29.41 in 4.0 mi WNW 28.8 mph 39.1 mph 0.00 in   Overcast
6:52 AM 32.0 °F 18.6 °F 27.0 °F 82% 29.46 in 5.0 mi WNW 25.3 mph 33.4 mph 0.00 in Snow Blowing Snow
7:06 AM 32.0 °F 17.2 °F 26.6 °F 80% 29.42 in 1.8 mi WNW 32.2 mph 42.6 mph N/A Snow Blowing Snow
7:17 AM 32.0 °F 17.6 °F 26.6 °F 80% 29.43 in 5.0 mi WNW 29.9 mph 40.3 mph N/A Snow Blowing Snow
7:27 AM 30.2 °F 14.1 °F 26.6 °F 86% 29.45 in 5.0 mi WNW 35.7 mph 44.9 mph N/A Snow Blowing Snow
7:52 AM 30.9 °F 16.7 °F 24.1 °F 76% 29.49 in 5.0 mi NW 27.6 mph 40.3 mph 0.00 in Snow Blowing Snow
8:15 AM 30.2 °F 16.8 °F 24.8 °F 80% 29.45 in 5.0 mi NW 23.0 mph - N/A Snow Blowing Snow
8:52 AM 30.0 °F 17.5 °F 24.1 °F 79% 29.53 in 10.0 mi NW 19.6 mph 28.8 mph N/A   Overcast
9:52 AM 30.0 °F 16.9 °F 23.0 °F 75% 29.55 in 10.0 mi NW 21.9 mph - N/A   Overcast
10:31 AM 30.2 °F 15.7 °F 21.2 °F 69% 29.52 in 10.0 mi WNW 27.6 mph 35.7 mph N/A   Overcast
10:52 AM 32.0 °F 19.5 °F 21.9 °F 66% 29.55 in 10.0 mi WNW 21.9 mph 31.1 mph 0.01 in   Scattered Clouds
11:52 AM 33.1 °F 21.2 °F 23.0 °F 66% 29.52 in 10.0 mi WNW 20.7 mph 25.3 mph N/A   Clear
12:52 PM 34.0 °F 23.4 °F 25.0 °F 70% 29.51 in 10.0 mi WNW 17.3 mph - N/A   Overcast
1:52 PM 35.1 °F 25.9 °F 25.0 °F 67% 29.50 in 10.0 mi WNW 13.8 mph - N/A   Overcast
2:52 PM 30.9 °F 18.7 °F 23.0 °F 72% 29.52 in 7.0 mi NNW 19.6 mph 27.6 mph 0.00 in Snow Light Snow
3:52 PM 28.9 °F 17.7 °F 21.0 °F 72% 29.55 in 9.0 mi NNW 15.0 mph - 0.00 in Snow Light Snow
4:16 PM 28.4 °F 16.6 °F 17.6 °F 64% 29.54 in 5.0 mi NNW 16.1 mph - 0.00 in Snow Light Snow
4:24 PM 26.6 °F 13.4 °F 17.6 °F 69% 29.56 in 2.0 mi NW 18.4 mph 23.0 mph 0.00 in Snow Light Snow
4:35 PM 26.6 °F 13.8 °F 19.4 °F 74% 29.56 in 0.5 mi NNW 17.3 mph 28.8 mph 0.00 in Snow Snow
4:50 PM 24.8 °F 10.3 °F 21.2 °F 86% 29.57 in 1.0 mi NNW 20.7 mph 29.9 mph 0.00 in Snow Light Snow
4:52 PM 25.0 °F 10.6 °F 21.0 °F 85% 29.60 in 2.0 mi NW 20.7 mph 29.9 mph 0.00 in Snow Light Snow
5:30 PM 24.8 °F 9.6 °F 19.4 °F 80% 29.62 in 3.0 mi NW 23.0 mph 33.4 mph 0.00 in Snow Light Snow
5:34 PM 24.8 °F 8.4 °F 19.4 °F 80% 29.64 in 1.8 mi NW 27.6 mph 33.4 mph 0.00 in Snow Blowing Snow
5:35 PM 24.8 °F 7.3 °F 19.4 °F 80% 29.64 in 0.5 mi NW 32.2 mph 47.2 mph 0.00 in Snow Blowing Snow
5:37 PM 23.0 °F 3.2 °F 19.4 °F 86% 29.65 in 0.1 mi NNW 40.3 mph 47.2 mph 0.00 in Snow Blowing Snow
5:44 PM 19.4 °F 0.5 °F 15.8 °F 86% 29.68 in 0.8 mi NNW 29.9 mph 47.2 mph 0.00 in Snow Blowing Snow
5:46 PM 19.4 °F 0.5 °F 15.8 °F 86% 29.68 in 1.0 mi NNW 29.9 mph 44.9 mph 0.00 in Snow Blowing Snow
5:48 PM 17.6 °F -1.3 °F 14.0 °F 86% 29.68 in 3.0 mi NNW 27.6 mph 38.0 mph 0.00 in Snow Blowing Snow
5:52 PM 18.0 °F -0.8 °F 14.0 °F 84% 29.73 in 3.0 mi NNW 27.6 mph 38.0 mph 0.00 in Snow Blowing Snow
5:58 PM 17.6 °F -0.3 °F 12.2 °F 79% 29.71 in 3.0 mi NNW 24.2 mph 34.5 mph N/A Snow Blowing Snow
6:25 PM 15.8 °F -4.4 °F 8.6 °F 73% 29.73 in 3.0 mi NNW 29.9 mph 39.1 mph 0.01 in Snow Blowing Snow
6:43 PM 12.2 °F -11.0 °F 5.0 °F 73% 29.76 in 3.0 mi NNW 36.8 mph 44.9 mph 0.01 in Snow Blowing Snow
6:52 PM 12.0 °F -9.2 °F 3.0 °F 67% 29.82 in 3.0 mi NNW 28.8 mph 42.6 mph 0.01 in Snow Blowing Snow
7:52 PM 9.0 °F -16.1 °F 1.0 °F 70% 29.88 in 3.0 mi NW 39.1 mph 49.5 mph N/A Snow Blowing Snow
8:09 PM 8.6 °F -16.0 °F 1.4 °F 73% 29.85 in 3.0 mi NW 36.8 mph 54.1 mph N/A Snow Blowing Snow
8:22 PM 8.6 °F -15.7 °F 1.4 °F 73% 29.86 in 1.0 mi NW 35.7 mph 47.2 mph N/A Snow Blowing Snow
8:28 PM 6.8 °F -16.9 °F 3.2 °F 85% 29.87 in 0.5 mi NW 31.1 mph 43.7 mph N/A Snow Blowing Snow
8:44 PM 5.0 °F -20.4 °F -0.4 °F 78% 29.89 in 3.0 mi NW 34.5 mph 49.5 mph N/A Snow Blowing Snow
8:52 PM 5.0 °F -20.4 °F -0.9 °F 76% 29.95 in 3.0 mi NW 34.5 mph 46.0 mph N/A Snow Blowing Snow
9:52 PM 1.9 °F -23.9 °F -5.1 °F 72% 30.01 in 3.0 mi NW 32.2 mph 39.1 mph N/A Snow Blowing Snow
10:52 PM 1.9 °F -24.9 °F -8.0 °F 63% 30.07 in 5.0 mi NW 35.7 mph 51.8 mph N/A Snow Blowing Snow
11:09 PM 1.4 °F -23.9 °F -7.6 °F 66% 30.04 in 10.0 mi NW 29.9 mph 44.9 mph N/A   Partly Cloudy
11:28 PM -0.4 °F -25.6 °F -7.6 °F 72% 30.05 in 7.0 mi NW 27.6 mph 41.4 mph N/A   Mostly Cloudy
11:52 PM -0.0 °F -25.5 °F -9.0 °F 66% 30.11 in 9.0 mi NW 28.8 mph 36.8 mph 0.00 in   Mostly Cloudy
11:59 PM -0.4 °F -26.0 °F -9.4 °F 66% 30.07 in 10.0 mi NW 28.8 mph 40.3 mph N/A   Scattered Clouds